DW2213 Weather Reports


Display with metric or nautical units.
time (UTC)temp
F
wind
direction
speed
MPH
gust
MPH
rain 1hr
in
rain 24hr
in
rain mn
in
humidity
%
barometer
mb
20260903220305 81 108 0.0 0.0 0.00 0.00 0.00 88 1017.2
20260903215804 81 108 0.0 0.0 0.00 0.00 0.00 88 1017.2
20260903215306 81 108 0.0 0.0 0.00 0.00 0.00 88 1017.2
20260903214804 81 108 0.0 0.0 0.00 0.00 0.00 88 1017.2
20260903214304 81 108 0.0 0.0 0.00 0.00 0.00 88 1017.2
20260903213804 81 108 0.0 0.0 0.00 0.00 0.00 87 1017.1
20260903213304 81 108 0.0 0.0 0.00 0.00 0.00 87 1017.2
20260903212804 81 108 0.0 0.0 0.00 0.00 0.00 87 1017.2
20260903212306 81 108 0.0 1.0 0.00 0.00 0.00 87 1017.2
20260903211804 81 108 0.0 1.0 0.00 0.00 0.00 87 1017.2
20260903211304 81 109 0.0 0.0 0.00 0.00 0.00 87 1017.3
20260903210804 82 108 0.0 0.0 0.00 0.00 0.00 86 1017.2
20260903205804 82 108 0.0 0.0 0.00 0.00 0.00 86 1017.1
20260903205306 82 109 0.0 0.0 0.00 0.00 0.00 86 1017.2
20260903204804 82 108 0.0 0.0 0.00 0.00 0.00 86 1017.1
20260903204304 82 108 0.0 0.0 0.00 0.00 0.00 86 1017.1
20260903203804 82 108 0.0 0.0 0.00 0.00 0.00 85 1017.1
20260903203304 82 108 0.0 0.0 0.00 0.00 0.00 85 1017.0
20260903202803 82 108 0.0 0.0 0.00 0.00 0.00 85 1017.0
20260903202306 82 108 0.0 0.0 0.00 0.00 0.00 85 1016.9
20260903201804 82 108 0.0 0.0 0.00 0.00 0.00 85 1016.9
20260903201304 82 121 0.0 0.0 0.00 0.00 0.00 85 1016.8
20260903200304 82 121 0.0 1.0 0.00 0.00 0.00 85 1016.7
20260903195804 82 121 0.0 0.0 0.00 0.00 0.00 85 1016.7
20260903195306 82 121 0.0 0.0 0.00 0.00 0.00 85 1016.7
20260903194804 82 121 0.0 0.0 0.00 0.00 0.00 84 1016.6
20260903194304 82 121 0.0 1.0 0.00 0.00 0.00 84 1016.5
20260903193804 82 121 0.0 1.0 0.00 0.00 0.00 84 1016.4
20260903193303 82 121 0.0 1.0 0.00 0.00 0.00 84 1016.4
20260903192804 82 121 0.0 1.0 0.00 0.00 0.00 84 1016.3
20260903192306 82 121 0.0 2.0 0.00 0.00 0.00 84 1016.2
20260903191803 82 121 0.0 0.0 0.00 0.00 0.00 84 1016.1
20260903191304 82 121 0.0 2.0 0.00 0.00 0.00 84 1016.0
20260903190303 83 121 0.0 0.0 0.00 0.00 0.00 83 1015.9
20260903185804 83 121 0.0 1.0 0.00 0.00 0.00 83 1015.8
20260903185306 83 121 0.0 2.0 0.00 0.00 0.00 83 1015.7
20260903184804 83 118 0.0 2.0 0.00 0.00 0.00 83 1015.6
20260903183304 83 146 0.0 1.0 0.00 0.00 0.00 82 1015.5
20260903182803 83 146 1.0 3.0 0.00 0.00 0.00 82 1015.4
20260903182306 83 132 1.0 6.0 0.00 0.00 0.00 82 1015.4
20260903181804 83 111 0.0 3.0 0.00 0.00 0.00 82 1015.5
20260903181304 84 135 1.0 3.0 0.00 0.00 0.00 81 1015.4
20260903180803 84 141 1.0 3.0 0.00 0.00 0.00 81 1015.4
20260903175804 84 128 0.0 5.0 0.00 0.00 0.00 80 1015.4
20260903175306 84 134 0.0 5.0 0.00 0.00 0.00 79 1015.4
20260903174803 84 142 1.0 5.0 0.00 0.00 0.00 78 1015.4
20260903174304 85 126 1.0 5.0 0.00 0.00 0.00 78 1015.4
20260903173804 85 146 2.0 5.0 0.00 0.00 0.00 77 1015.4
20260903173304 85 142 1.0 3.0 0.00 0.00 0.00 77 1015.3
20260903172805 85 113 1.0 7.0 0.00 0.00 0.00 76 1015.3
20260903172306 85 132 1.0 6.0 0.00 0.00 0.00 76 1015.2
20260903171804 85 159 1.0 5.0 0.00 0.00 0.00 76 1015.2
20260903170804 85 121 1.0 6.0 0.00 0.00 0.00 75 1015.2
20260903170305 86 102 2.0 7.0 0.00 0.00 0.00 74 1015.2
20260903165805 86 128 1.0 5.0 0.00 0.00 0.00 74 1015.2
20260903165306 86 134 0.0 3.0 0.00 0.00 0.00 74 1015.2
20260903164805 86 128 1.0 5.0 0.00 0.00 0.00 73 1015.2
20260903163805 87 124 2.0 8.0 0.00 0.00 0.00 71 1015.3
20260903162805 88 132 1.0 6.0 0.00 0.00 0.00 69 1015.2
20260903162306 88 148 2.0 5.0 0.00 0.00 0.00 67 1015.2
20260903161805 88 127 1.0 7.0 0.00 0.00 0.00 66 1015.1
20260903161305 88 137 1.0 3.0 0.00 0.00 0.00 65 1015.2
20260903160805 88 148 2.0 6.0 0.00 0.00 0.00 64 1015.2
20260903160304 89 117 1.0 5.0 0.00 0.00 0.00 65 1015.1
20260903155805 89 135 2.0 7.0 0.00 0.00 0.00 64 1015.1
20260903155306 89 134 2.0 7.0 0.00 0.00 0.00 63 1015.2
20260903154805 89 127 2.0 6.0 0.00 0.00 0.00 62 1015.3
20260903154305 89 134 2.0 7.0 0.00 0.00 0.00 62 1015.3
20260903153805 89 133 1.0 6.0 0.00 0.00 0.00 63 1015.3
20260903153305 89 112 2.0 6.0 0.00 0.00 0.00 62 1015.4
20260903152805 90 136 1.0 8.0 0.00 0.00 0.00 62 1015.5
20260903151804 90 130 1.0 7.0 0.00 0.00 0.00 60 1015.5
20260903151305 90 133 1.0 5.0 0.00 0.00 0.00 61 1015.6
20260903150805 89 142 1.0 6.0 0.00 0.00 0.00 64 1015.6
20260903145805 90 123 3.0 7.0 0.00 0.00 0.00 63 1015.6
20260903145306 90 146 1.0 7.0 0.00 0.00 0.00 64 1015.7
20260903144305 91 143 3.0 6.0 0.00 0.00 0.00 60 1015.8
20260903143805 91 145 3.0 6.0 0.00 0.00 0.00 59 1015.8
20260903142805 91 120 1.0 7.0 0.00 0.00 0.00 61 1016.0
20260903142306 90 159 1.0 7.0 0.00 0.00 0.00 61 1016.0
20260903141804 91 127 2.0 7.0 0.00 0.00 0.00 60 1016.0
20260903141304 91 131 2.0 6.0 0.00 0.00 0.00 59 1016.1
20260903140805 91 146 2.0 5.0 0.00 0.00 0.00 59 1016.1
20260903140305 91 124 3.0 6.0 0.00 0.00 0.00 56 1016.2
20260903135804 92 119 3.0 8.0 0.00 0.00 0.00 54 1016.2
20260903134804 93 134 2.0 6.0 0.00 0.00 0.00 53 1016.2
20260903134304 93 142 2.0 6.0 0.00 0.00 0.00 51 1016.2
20260903133805 93 118 1.0 6.0 0.00 0.00 0.00 54 1016.2
20260903133305 93 134 1.0 7.0 0.00 0.00 0.00 55 1016.2
20260903132804 93 133 2.0 6.0 0.00 0.00 0.00 55 1016.2
20260903131805 92 139 3.0 6.0 0.00 0.00 0.00 56 1016.4
20260903131305 92 151 1.0 5.0 0.00 0.00 0.00 54 1016.5
20260903130805 92 117 1.0 5.0 0.00 0.00 0.00 56 1016.5
20260903130305 92 137 1.0 5.0 0.00 0.00 0.00 57 1016.5
20260903124805 91 120 1.0 7.0 0.00 0.00 0.00 59 1016.6
20260903124305 91 120 1.0 6.0 0.00 0.00 0.00 60 1016.6
20260903123304 91 140 3.0 6.0 0.00 0.00 0.00 62 1016.7
20260903122805 91 127 2.0 6.0 0.00 0.00 0.00 62 1016.8
20260903122306 91 129 0.0 5.0 0.00 0.00 0.00 61 1016.8
20260903121805 91 19 1.0 5.0 0.00 0.00 0.00 62 1016.8
20260903121305 91 114 1.0 6.0 0.00 0.00 0.00 61 1016.8
20260903120305 91 79 0.0 3.0 0.00 0.00 0.00 60 1016.8
20260903115306 91 114 1.0 3.0 0.00 0.00 0.00 62 1016.9
20260903114805 91 137 0.0 2.0 0.00 0.00 0.00 61 1017.0
20260903114304 91 107 0.0 2.0 0.00 0.00 0.00 61 1017.1
20260903113304 89 104 1.0 3.0 0.00 0.00 0.00 64 1017.1
20260903112805 89 38 1.0 5.0 0.00 0.00 0.00 64 1017.2
20260903112305 89 144 1.0 2.0 0.00 0.00 0.00 64 1017.2
20260903111804 90 150 1.0 5.0 0.00 0.00 0.00 64 1017.4
20260903110805 90 151 1.0 3.0 0.00 0.00 0.00 64 1017.4
20260903110305 89 150 0.0 1.0 0.00 0.00 0.00 66 1017.5
20260903105805 89 146 0.0 2.0 0.00 0.00 0.00 65 1017.6
20260903105306 89 147 0.0 2.0 0.00 0.00 0.00 66 1017.7
20260903104806 89 150 1.0 5.0 0.00 0.00 0.00 66 1017.7
20260903103805 88 137 0.0 1.0 0.00 0.00 0.00 66 1017.8
20260903103304 89 129 1.0 3.0 0.00 0.00 0.00 67 1017.9
20260903102805 88 140 1.0 3.0 0.00 0.00 0.00 67 1018.0
20260903102306 88 143 1.0 3.0 0.00 0.00 0.00 68 1018.0
20260903101804 88 141 0.0 3.0 0.00 0.00 0.00 67 1018.1
20260903100805 88 110 0.0 3.0 0.00 0.00 0.00 70 1018.1
20260903100306 87 17 1.0 2.0 0.00 0.00 0.00 71 1018.0
20260903095805 86 29 0.0 0.0 0.00 0.00 0.00 71 1018.0
20260903094305 85 77 0.0 0.0 0.00 0.00 0.00 73 1018.0
20260903093804 85 77 0.0 0.0 0.00 0.00 0.00 73 1017.9
20260903092805 85 34 0.0 0.0 0.00 0.00 0.00 74 1018.0
20260903091805 85 32 0.0 0.0 0.00 0.00 0.00 73 1017.9
20260903091304 85 30 0.0 0.0 0.00 0.00 0.00 74 1017.9
20260903090804 85 30 0.0 0.0 0.00 0.00 0.00 74 1018.0
20260903090304 84 30 0.0 0.0 0.00 0.00 0.00 76 1018.0
20260903085805 84 29 0.0 0.0 0.00 0.00 0.00 76 1017.9
20260903085306 83 30 0.0 0.0 0.00 0.00 0.00 77 1017.9
20260903084804 83 30 0.0 0.0 0.00 0.00 0.00 78 1017.9
20260903084304 83 30 0.0 0.0 0.00 0.00 0.00 80 1017.7
20260903083804 83 28 0.0 0.0 0.00 0.00 0.00 80 1017.7
20260903083304 83 28 0.0 0.0 0.00 0.00 0.00 81 1017.8
20260903082805 82 28 0.0 0.0 0.00 0.00 0.00 82 1017.7
20260903081804 81 28 0.0 0.0 0.00 0.00 0.00 83 1017.7
20260903081304 81 28 0.0 0.0 0.00 0.00 0.00 85 1017.7
20260903080305 80 28 0.0 0.0 0.00 0.00 0.00 86 1017.7
20260903075805 80 28 0.0 0.0 0.00 0.00 0.00 86 1017.7
20260903075306 80 28 0.0 0.0 0.00 0.00 0.00 86 1017.7
20260903073804 79 29 0.0 0.0 0.00 0.00 0.00 87 1017.7
20260903073305 78 29 0.0 0.0 0.00 0.00 0.00 87 1017.7
20260903072805 78 29 0.0 0.0 0.00 0.00 0.00 87 1017.6
20260903072307 78 29 0.0 0.0 0.00 0.00 0.00 88 1017.7
20260903071804 78 28 0.0 0.0 0.00 0.00 0.00 88 1017.6
20260903070804 78 28 0.0 0.0 0.00 0.00 0.00 88 1017.5
20260903070305 77 29 0.0 0.0 0.00 0.00 0.00 88 1017.5
20260903065805 77 29 0.0 0.0 0.00 0.00 0.00 89 1017.4
20260903065306 77 28 0.0 0.0 0.00 0.00 0.00 89 1017.4
20260903064804 77 30 0.0 0.0 0.00 0.00 0.00 90 1017.4
20260903064304 76 30 0.0 0.0 0.00 0.00 0.00 90 1017.4
20260903063804 76 30 0.0 0.0 0.00 0.00 0.00 90 1017.3
20260903063304 76 30 0.0 0.0 0.00 0.00 0.00 90 1017.3
20260903062805 76 30 0.0 0.0 0.00 0.00 0.00 90 1017.2
20260903062306 75 30 0.0 0.0 0.00 0.00 0.00 90 1017.2
20260903061804 75 30 0.0 0.0 0.00 0.00 0.00 90 1017.1
20260903060805 76 30 0.0 0.0 0.00 0.00 0.00 91 1017.0
20260903060305 76 30 0.0 0.0 0.00 0.00 0.00 91 1017.0
20260903055805 76 30 0.0 0.0 0.00 0.00 0.00 91 1017.0
20260903055306 76 30 0.0 0.0 0.00 0.00 0.00 91 1016.9
20260903054805 76 30 0.0 0.0 0.00 0.00 0.00 91 1016.8
20260903053804 76 30 0.0 0.0 0.00 0.00 0.00 91 1016.7
20260903052804 76 30 0.0 0.0 0.00 0.00 0.00 91 1016.6
20260903051805 76 30 0.0 0.0 0.00 0.00 0.00 91 1016.4
20260903051304 76 30 0.0 0.0 0.00 0.00 0.00 91 1016.4
20260903050305 76 30 0.0 0.0 0.00 0.00 0.00 90 1016.3
20260903045804 76 30 0.0 0.0 0.00 0.00 0.00 90 1016.4
20260903044304 76 30 0.0 0.0 0.00 0.00 0.00 90 1016.4
20260903043805 76 30 0.0 0.0 0.00 0.00 0.00 90 1016.3
20260903043305 76 30 0.0 0.0 0.00 0.00 0.00 90 1016.4
20260903042804 76 30 0.0 0.0 0.00 0.00 0.00 90 1016.3
20260903042306 76 30 0.0 0.0 0.00 0.00 0.00 90 1016.2
20260903041804 76 30 0.0 0.0 0.00 0.00 0.00 90 1016.1
20260903041305 76 30 0.0 0.0 0.00 0.00 0.00 90 1016.1
20260903040805 76 30 0.0 0.0 0.00 0.00 0.00 90 1016.1
20260903035805 76 30 0.0 0.0 0.00 0.00 0.00 90 1016.1
20260903035306 77 30 0.0 0.0 0.00 0.00 0.00 89 1016.2
20260903034304 77 30 0.0 0.0 0.00 0.00 0.00 89 1016.2
20260903033804 77 30 0.0 0.0 0.00 0.00 0.00 89 1016.2
20260903033305 77 30 0.0 0.0 0.00 0.00 0.00 89 1016.2
20260903032804 77 30 0.0 0.0 0.00 0.00 0.00 89 1016.2
20260903032306 77 30 0.0 0.0 0.00 0.00 0.00 89 1016.1
20260903031805 77 30 0.0 0.0 0.00 0.00 0.00 89 1016.1
20260903030804 77 30 0.0 0.0 0.00 0.00 0.00 89 1016.1
20260903025804 77 30 0.0 0.0 0.00 0.00 0.00 89 1016.1
20260903025306 77 30 0.0 0.0 0.00 0.00 0.00 89 1016.1
20260903024304 77 30 0.0 0.0 0.00 0.00 0.00 89 1016.1
20260903023804 77 30 0.0 0.0 0.00 0.00 0.00 89 1016.1
20260903023304 77 30 0.0 0.0 0.00 0.00 0.00 89 1016.1
20260903022804 77 30 0.0 0.0 0.00 0.00 0.00 89 1016.1
20260903022306 77 30 0.0 0.0 0.00 0.00 0.00 89 1016.1
20260903021805 77 30 0.0 0.0 0.00 0.00 0.00 89 1016.1
20260903021304 77 30 0.0 0.0 0.00 0.00 0.00 89 1016.1
20260903015805 77 30 0.0 0.0 0.00 0.00 0.00 89 1016.2
20260903014804 78 30 0.0 0.0 0.00 0.00 0.00 89 1016.2
20260903013804 78 30 0.0 0.0 0.00 0.00 0.00 89 1016.2
20260903013304 78 30 0.0 0.0 0.00 0.00 0.00 89 1016.2
20260903012804 78 30 0.0 0.0 0.00 0.00 0.00 89 1016.2
20260903012306 78 30 0.0 0.0 0.00 0.00 0.00 89 1016.3
20260903011805 78 30 0.0 0.0 0.00 0.00 0.00 89 1016.3
20260903011305 78 30 0.0 0.0 0.00 0.00 0.00 89 1016.3
20260903010305 78 30 0.0 0.0 0.00 0.00 0.00 89 1016.3
20260903005306 78 30 0.0 0.0 0.00 0.00 0.00 89 1016.4
20260903004804 78 30 0.0 0.0 0.00 0.00 0.00 88 1016.5
20260903003804 78 30 0.0 0.0 0.00 0.00 0.00 88 1016.5
20260903002804 79 30 0.0 0.0 0.00 0.00 0.00 87 1016.5
20260903002306 79 30 0.0 0.0 0.00 0.00 0.00 87 1016.5
20260903001804 79 30 0.0 0.0 0.00 0.00 0.00 87 1016.5
20260903001304 79 30 0.0 0.0 0.00 0.00 0.00 87 1016.6
20260903000804 79 29 0.0 0.0 0.00 0.00 0.00 87 1016.5
20260903000304 79 29 0.0 0.0 0.00 0.00 0.00 87 1016.6
20260902235804 79 29 0.0 0.0 0.00 0.00 0.00 87 1016.6
20260902235306 79 29 0.0 0.0 0.00 0.00 0.00 87 1016.6
20260902234804 79 29 0.0 0.0 0.00 0.00 0.00 87 1016.6
20260902234304 79 29 0.0 0.0 0.00 0.00 0.00 87 1016.6
20260902233803 80 29 0.0 0.0 0.00 0.00 0.00 87 1016.6
20260902233304 79 29 0.0 0.0 0.00 0.00 0.00 87 1016.6
20260902232804 80 29 0.0 0.0 0.00 0.00 0.00 87 1016.6
20260902232306 80 29 0.0 0.0 0.00 0.00 0.00 87 1016.6
20260902231304 80 29 0.0 0.0 0.00 0.00 0.00 87 1016.6
20260902230804 80 29 0.0 0.0 0.00 0.00 0.00 86 1016.7
20260902225805 80 29 0.0 0.0 0.00 0.00 0.00 86 1016.6
20260902225306 80 29 0.0 0.0 0.00 0.00 0.00 86 1016.7
20260902224304 80 29 0.0 0.0 0.00 0.00 0.00 86 1016.7
20260902223804 80 29 0.0 0.0 0.00 0.00 0.00 86 1016.7
20260902223304 80 29 0.0 0.0 0.00 0.00 0.00 86 1016.6
20260902222306 80 29 0.0 0.0 0.00 0.00 0.00 86 1016.6
20260902221804 80 29 0.0 0.0 0.00 0.00 0.00 85 1016.6
20260902221304 80 29 0.0 0.0 0.00 0.00 0.00 85 1016.6
20260902220816 81 29 0.0 0.0 0.00 0.00 0.00 85 1016.6